Weather History for Stockton, CA

Change the Weather History Date:

Sunday, December 4, 2011

  Actual Average Record
Temperature  
Mean Temperature 43 °F -  
Max Temperature 58 °F 57 °F 73 °F (1958)
Min Temperature 27 °F 38 °F 26 °F (1968)
Degree Days  
Heating Degree Days 22 18  
Month to date heating degree days 64 70  
Since 1 July heating degree days 545 527  
Cooling Degree Days 0 0  
Month to date cooling degree days 0 0  
Year to date cooling degree days 1191 1320  
Moisture  
Dew Point 24 °F    
Average Humidity 53    
Maximum Humidity 78    
Minimum Humidity 28    
Precipitation  
Precipitation 0.00 in 0.06 in 1.30 in (1966)
Month to date precipitation 0.00 0.24  
Year to date precipitation 9.95 12.08  
Since 1 July precipitation 1.48 3.05  
Snow  
Snow 0.00 in - 0.00 in (2001)
Month to date snowfall 0.0  
Since 1 July snowfall 0.0  
Snow Depth -    
Sea Level Pressure  
Sea Level Pressure 30.21 in    
Wind  
Wind Speed 3 mph (SE)    
Max Wind Speed 10 mph    
Max Gust Speed 10 mph    
Visibility 10 miles    
Events      
T = Trace of Precipitation, MM = Missing Value Source: NWS Daily Summary

Daily Weather History Graph

Daily Weather History Graph

Search for Another Location

Airport:

Trip Planner

Search our weather history database for the weather conditions in past years. The results will help you decide how hot, cold, wet, or windy it might be!

Date:

Astronomy

Dec. 04, 2011 Rise Set
Actual Time 7:04 AM PST 4:45 PM PST
Civil Twilight 6:35 AM PST 5:14 PM PST
Nautical Twilight 6:02 AM PST 5:47 PM PST
Astronomical Twilight 5:30 AM PST 6:19 PM PST
Moon 1:14 PM PST (12/4) 1:39 AM PST (12/4)
Length of Visible Light 10h 39m
Length of Day
9h 41m
Waxing Gibbous, 72% of the Moon is Illuminated
Dec 4
Waxing Gibbous
Dec 10
Full
Dec 17
Last Quarter
Dec 24
New
Dec 31
First Quarter

Hourly Weather History & Observations

Time (PST) Temp. Windchill Dew Point Humidity Pressure Visibility Wind Dir Wind Speed Gust Speed Precip Events Conditions
12:55 AM 33.1 °F - 21.9 °F 64% 30.23 in 10.0 mi Calm Calm - N/A   Clear
1:55 AM 30.0 °F 24.1 °F 19.0 °F 64% 30.25 in 10.0 mi SW 5.8 mph - N/A   Clear
2:55 AM 30.2 °F 24.3 °F 21.2 °F 69% 30.26 in 10.0 mi ESE 5.8 mph - N/A   Clear
3:55 AM 28.9 °F 23.9 °F 19.9 °F 69% 30.25 in 10.0 mi SE 4.6 mph - N/A   Clear
4:55 AM 30.0 °F 24.1 °F 21.0 °F 69% 30.25 in 10.0 mi ESE 5.8 mph - N/A   Clear
5:55 AM 28.0 °F 22.8 °F 21.0 °F 75% 30.25 in 10.0 mi SE 4.6 mph - N/A   Clear
6:55 AM 30.0 °F 24.1 °F 24.1 °F 79% 30.27 in 8.0 mi East 5.8 mph - N/A   Clear
7:55 AM 30.2 °F 26.7 °F 24.8 °F 80% 30.28 in 7.0 mi SSE 3.5 mph - N/A   Clear
8:55 AM 36.0 °F 31.1 °F 27.0 °F 70% 30.29 in 7.0 mi SE 5.8 mph - N/A   Clear
9:55 AM 43.0 °F - 28.9 °F 58% 30.29 in 9.0 mi Calm Calm - N/A   Clear
10:55 AM 48.0 °F - 27.0 °F 44% 30.27 in 10.0 mi ESE 4.6 mph - N/A   Clear
11:55 AM 51.1 °F - 27.0 °F 39% 30.23 in 10.0 mi South 3.5 mph - N/A   Clear
12:55 PM 54.0 °F - 26.1 °F 34% 30.20 in 10.0 mi Calm Calm - N/A   Clear
1:55 PM 55.9 °F - 25.0 °F 30% 30.18 in 10.0 mi Calm Calm - N/A   Clear
2:55 PM 57.0 °F - 24.1 °F 28% 30.16 in 10.0 mi NNW 3.5 mph - N/A   Clear
3:55 PM 57.0 °F - 24.1 °F 28% 30.16 in 10.0 mi Calm Calm - N/A   Clear
4:55 PM 52.0 °F - 23.0 °F 32% 30.14 in 10.0 mi NNE 3.5 mph - N/A   Clear
5:55 PM 48.0 °F - 24.1 °F 39% 30.14 in 10.0 mi Calm Calm - N/A   Clear
6:55 PM 43.0 °F - 23.0 °F 45% 30.15 in 10.0 mi Calm Calm - N/A   Clear
7:55 PM 39.9 °F - 24.1 °F 53% 30.14 in 10.0 mi Calm Calm - N/A   Clear
8:55 PM 37.9 °F - 25.0 °F 60% 30.14 in 10.0 mi Calm Calm - N/A   Clear
9:55 PM 36.0 °F - 24.1 °F 62% 30.14 in 10.0 mi Calm Calm - N/A   Clear
10:55 PM 34.0 °F - 23.0 °F 64% 30.16 in 10.0 mi Calm Calm - N/A   Clear
11:55 PM 32.0 °F 28.7 °F 23.0 °F 69% 30.16 in 10.0 mi South 3.5 mph - N/A   Clear